Simultaneous Nadir Overpasses (SNOs) Predictions

Prediction of SNOs between METOP-B and TERRA Satellite Orbit:

Table of predicted SNOs for the next 14.0 days since TLE Epoch: 11/30/2014
Index Date (METOP-B) Time (METOP-B) Lat,Lon (METOP-B) SZA (METOP-B ) Date (TERRA) Time (TERRA) Lat,Lon (TERRA) SZA (TERRA ) Distance(km) Time Diff (sec)
1 11/30/2014 10:28:35 81.26, 69.20 105.78 11/30/2014 10:29:40 81.26, 69.20 105.81 0.15 65
2 11/30/2014 11:19:15 -81.27,-122.98 74.16 11/30/2014 11:19:06 -81.28,-122.87 74.14 2.09 9
3 12/03/2014 06:02:58 81.27, 135.74 106.20 12/03/2014 06:03:54 81.27, 135.77 106.23 0.80 56
4 12/03/2014 06:53:39 -81.27, -56.78 73.79 12/03/2014 06:53:21 -81.27, -56.66 73.78 1.98 18
5 12/06/2014 01:37:23 81.26,-158.14 106.50 12/06/2014 01:38:09 81.26,-157.98 106.54 2.67 46
6 12
